一网星座-0648星 (ONEWEB-0648)

导读 | 星芒AI

ONEWE-0648 是 OneWeb 卫星通信网络中的一颗低轨道通信卫星,旨在为全球提供高速互联网服务。该卫星由空中客车防务与航天公司制造,于2022年发射,部署在约1200公里高度的近极地轨道上。作为 OneWeb 计划中数百颗卫星之一,它支持偏远和农村地区的宽带接入,增强全球数字连接。该卫星采用先进通信技术,具备高容量和低延迟特性,助力实现全球覆盖目标。

基本信息
目录编号:
55811
目录名称:
ONEWEB-0648
国际标识:
2023-029R
轨道中心:
EARTH
卫星名称:
一网星座-0648星
卫星全名:
一网星座-0648星 (ONEWEB-0648)
卫星状态:
在轨 (已飞行966 天)
发射日期:
2023-03-09 UTC
国别 :
英国 (GB)
星等 :
--
轨道信息
数据来源 国际轨道数据
星历时间: 2025-10-30T04:32:46+0800
11小时前
查看轨道信息
半长轴: 7583.936km
偏心率: 0.0002512
轨道倾角: 87.900°
近地点辐角 117.026°
升交点赤经 335.591°
平近点角 243.113°
近地点: 1203.895km
远地点: 1207.707km
周期: 109.547分钟
每日圈数: 13.145006
详细信息
平衡模式:
三轴稳定
覆盖范围:
全球
运营商:
一网卫星公司
运营商所在国:
英国
制造商(研发单位):
一网卫星公司
制造商所在国:
英国
使用方式:
暂无
卫星简介
OneWeb卫星网络由648颗重约125公斤的微型卫星组成,运行在1200公里的轨道上。 每颗卫星都能够提供至少每秒8千兆位的吞吐量,以使用其高吞吐量的Ku频段有效载荷为家庭和移动平台提供互联网接入。该卫星仍在工作。
2D轨道图
3D轨道图
轨道高度分析图
轨道倾角分析图
轨道综合分析图
查看轨道综合分析图